Location: Krywa?d
(50.2139°N, 18.6466°E)
Time: 18:03:00
(UTC+00:00)

Daily predictions for brighter satellites

Satellite Brightness Start Highest point End
(mag) Time Altitude Azimuth Time Altitude Azimuth Time Altitude Azimuth
MOS 1 4.5 17:42:56 10° SE 17:48:26 56° ENE 17:53:58 10° N
CZ-2C R/B 3.1 17:44:08 10° SE 17:48:54 52° ENE 17:53:32 10° N
STARLINK-1130 (DARKSAT) 4.2 17:44:54 10° WNW 17:48:56 53° SSW 17:52:58 10° SE
STARLINK-1237 3.8 17:46:17 10° WSW 17:50:26 78° NNW 17:54:36 10° ENE
CZ-2C R/B 4.0 17:49:45 10° NE 17:53:04 17° E 17:56:22 10° SE
Cosmos 1656 Rocket 4.5 17:47:51 10° NNW 17:53:05 36° NE 17:58:14 10° ESE
Meteor 1-21 Rocket 4.4 17:48:19 10° N 17:53:45 51° ENE 17:59:07 10° SSE
STARLINK-1084 4.3 17:49:53 10° WNW 17:53:53 49° SSW 17:57:54 10° SE
Cosmos 1758 3.5 17:50:47 10° S 17:54:46 53° E 17:58:46 10° NNE
STARLINK-1202 3.8 17:51:16 10° WSW 17:55:24 75° NNW 17:59:34 10° ENE
Cosmos 1992 Rocket 4.1 17:51:08 10° NNW 17:56:19 60° ENE 18:01:27 10° SE
STARLINK-1203 3.8 17:52:43 10° W 17:56:51 72° NNW 18:00:59 10° ENE
Cosmos 2084 Rocket 3.9 17:53:27 10° NW 17:57:55 68° SW 18:02:22 10° SSE
STARLINK-1233 3.6 17:55:31 10° W 17:58:36 52° N 18:01:42 10° ENE
STARLINK-1098 4.4 17:54:53 10° WNW 17:58:52 46° SSW 18:02:51 10° SE
STARLINK-1212 3.6 17:55:58 10° W 17:59:03 52° N 18:02:08 10° ENE
Cosmos 2228 4.5 17:56:19 10° SE 17:59:13 18° E 18:02:09 10° NE
COSMOS 2455 4.2 17:54:28 10° NNW 17:59:28 26° NNE 18:04:26 10° E
STARLINK-1105 3.6 17:56:25 10° W 17:59:30 52° N 18:02:36 10° ENE
STARLINK-1206 3.6 17:56:54 10° W 17:59:58 51° N 18:03:02 10° ENE
STARLINK-1247 3.6 17:57:21 10° W 18:00:25 51° N 18:03:28 10° ENE
STARLINK-1227 3.6 17:57:46 10° W 18:00:50 51° N 18:03:56 10° ENE
CZ-4 R/B 4.0 17:58:10 10° SSW 18:01:16 23° W 18:04:24 10° NW
STARLINK-1218 3.6 17:58:15 10° W 18:01:20 51° N 18:04:23 10° ENE
ARGOS 3.2 17:56:11 10° SSE 18:01:31 65° ENE 18:06:51 10° N
STARLINK-1226 3.6 17:58:41 10° W 18:01:45 51° N 18:04:50 10° ENE
STARLINK-1254 3.6 17:59:08 10° W 18:02:12 51° N 18:05:18 10° ENE
STARLINK-1215 3.6 17:59:38 10° W 18:02:41 51° N 18:05:45 10° ENE
STARLINK-1231 3.6 18:00:05 10° W 18:03:08 51° N 18:06:13 10° ENE
STARLINK-1232 3.6 18:00:59 10° W 18:04:02 51° N 18:07:06 10° ENE
STARLINK-1217 3.6 18:01:26 10° W 18:04:29 50° N 18:07:33 10° ENE
STARLINK-1208 3.6 18:01:51 10° W 18:04:55 51° N 18:08:01 10° ENE
Cosmos 1603 4.2 17:59:58 10° S 18:05:01 35° ESE 18:10:03 10° NE
STARLINK-1246 3.9 18:01:13 10° W 18:05:21 71° NNW 18:09:31 10° ENE
STARLINK-1229 3.6 18:02:19 10° W 18:05:22 50° N 18:08:25 10° ENE
STARLINK-1271 3.6 18:02:47 10° W 18:05:50 50° N 18:08:54 10° ENE
STARLINK-1270 3.6 18:03:14 10° W 18:06:18 50° N 18:09:21 10° ENE
STARLINK-1154 3.6 18:03:41 10° W 18:06:44 50° N 18:09:48 10° ENE
Meteor 2-15 4.4 18:01:28 10° S 18:07:30 73° E 18:13:33 10° NNE
STARLINK-1197 3.6 18:04:35 10° W 18:07:38 50° N 18:10:42 10° ENE
STARLINK-1189 3.6 18:05:04 10° W 18:08:07 50° N 18:11:11 10° ENE
STARLINK-1198 3.6 18:05:30 10° W 18:08:33 50° N 18:11:36 10° ENE
STARLINK-1188 3.6 18:05:57 10° W 18:09:00 50° N 18:12:03 10° ENE
Cosmos 2237 Rocket 4.0 18:04:11 10° WSW 18:09:20 36° NW 18:14:32 10° NNE
STARLINK-1235 3.6 18:06:37 10° W 18:09:42 48° N 18:12:47 10° ENE
STARLINK-1187 3.6 18:06:53 10° W 18:09:59 49° N 18:13:05 10° ENE
STARLINK-1224 3.9 18:06:16 10° W 18:10:24 69° NNW 18:14:33 10° ENE
STARLINK-1199 3.6 18:07:53 10° W 18:10:58 50° N 18:14:03 10° ENE
H-2A R/B 2.1 18:05:57 10° SSE 18:11:12 88° ENE 18:16:21 10° NNW
STARLINK-1201 3.7 18:08:04 10° W 18:11:17 51° N 18:14:30 10° ENE
STARLINK-1191 3.6 18:08:21 10° W 18:11:25 50° N 18:14:30 10° ENE
IRS-1A Rocket 4.5 18:05:53 10° SSE 18:11:36 84° WSW 18:17:28 10° NNW
Cosmos 2184 Rocket 4.2 18:05:35 10° N 18:11:46 52° ENE 18:17:50 10° SSE
STARLINK-1210 3.6 18:08:47 10° W 18:11:52 49° N 18:14:57 10° ENE
STARLINK-1221 3.6 18:09:14 10° W 18:12:19 49° N 18:15:24 10° ENE
STARLINK-1219 3.6 18:09:41 10° W 18:12:46 49° N 18:15:52 10° ENE
STARLINK-1222 3.6 18:10:09 10° W 18:13:14 49° N 18:16:19 10° ENE
STARLINK-1211 3.6 18:10:36 10° W 18:13:40 49° N 18:16:46 10° ENE
Cosmos 1726 2.9 18:10:21 10° SSE 18:13:41 32° E 18:17:03 10° NNE
STARLINK-1214 3.6 18:11:04 10° W 18:14:08 49° N 18:17:13 10° ENE
STARLINK-1245 3.6 18:11:32 10° W 18:14:35 49° N 18:17:38 10° ENE
STARLINK-1234 3.6 18:11:50 10° WNW 18:14:48 47° N 18:17:45 10° ENE
STARLINK-1238 3.6 18:11:58 10° W 18:15:02 49° N 18:18:07 10° ENE
STARLINK-1225 3.9 18:11:13 10° W 18:15:21 67° NNW 18:19:30 10° ENE
STARLINK-1228 3.5 18:12:35 10° WNW 18:15:24 45° N 18:18:10 10° ENE
STARLINK-1205 3.6 18:12:55 10° W 18:15:58 49° N 18:19:01 10° ENE
USA 186 1.8 18:12:42 10° SSE 18:16:05 88° WSW 18:19:22 10° NNW
STARLINK-1204 3.6 18:13:21 10° W 18:16:24 49° N 18:19:28 10° ENE
Resurs 1-3 4.1 18:14:24 10° SE 18:18:31 41° ENE 18:22:39 10° N
STARLINK-1230 4.0 18:16:13 10° W 18:20:21 65° NNW 18:24:30 10° ENE
Meteor 2-10 4.4 18:17:36 10° SSE 18:22:48 49° E 18:28:11 10° NNE
ATLAS CENTAUR R/B 4.1 18:23:43 10° NNW 18:24:50 11° N 18:25:56 10° NNE
STARLINK-1243 4.0 18:21:12 10° W 18:25:20 64° N 18:29:28 10° ENE
STARLINK-1209 3.5 18:22:33 10° WNW 18:25:25 45° N 18:27:49 13° ENE
Cosmos 292 Rocket 4.0 18:22:53 10° NNW 18:27:41 71° WSW 18:32:28 10° SSE
Cosmos 1461 4.3 18:24:22 10° NNW 18:28:20 30° NE 18:31:32 14° E
Cosmos 1703 3.8 18:24:42 10° N 18:28:27 39° ENE 18:31:28 14° SE
Cosmos 2251 Rocket 3.5 18:24:14 10° S 18:29:32 66° ESE 18:34:53 10° NNE
STARLINK-1236 4.0 18:26:15 10° W 18:30:22 62° N 18:34:25 10° ENE
NOSS 3-4 (A) 4.0 18:24:41 10° NW 18:31:25 59° NE 18:37:30 16° ESE
NOSS 3-4 (C) 4.0 18:24:48 10° NW 18:31:31 59° NE 18:37:35 16° ESE
Cosmos 1953 2.2 18:28:19 10° S 18:32:16 74° E 18:36:16 10° NNE
ERBS 4.2 18:29:31 10° WNW 18:32:23 25° N 18:35:15 10° ENE
Cosmos 2154 Rocket 4.3 18:27:25 10° N 18:33:36 50° ENE 18:39:29 11° SSE
Cosmos 2315 Rocket 4.5 18:29:27 10° SSW 18:35:45 68° WNW 18:42:09 10° N
Resurs 01 Rocket 2.0 18:34:55 15° SE 18:38:16 46° ENE 18:42:30 10° N
FREGAT/IRIS 4.0 18:36:15 10° SSW 18:38:47 34° W 18:41:19 10° NNW
Cosmos 2369 Rocket 2.5 18:33:27 10° NNW 18:39:07 67° WSW 18:44:43 10° SSE
STARLINK-1269 4.1 18:36:12 10° W 18:40:19 60° N 18:43:57 13° ENE
Aureole 3 4.0 18:35:58 10° SSW 18:40:29 83° W 18:46:23 10° N
NOSS 3-3 (A) 3.9 18:36:24 10° SSW 18:42:13 63° SE 18:48:48 10° NE
NOSS 3-3 (C) 3.9 18:36:31 10° SSW 18:42:19 63° SE 18:48:54 10° NE
Nadezhda 1 Rocket 4.3 18:37:05 10° SSE 18:43:11 49° E 18:49:17 10° NNE
Cosmos 2058 Rocket 4.0 18:41:07 18° SE 18:43:25 28° E 18:47:16 10° NNE
IRIDIUM 104 4.4 18:39:41 10° N 18:44:56 80° W 18:50:09 10° S
Cosmos 1943 Rocket 3.1 18:39:46 10° NW 18:45:03 46° WSW 18:50:20 10° S
Cosmos 1437 2.5 18:42:07 10° NNW 18:45:10 83° WSW 18:47:33 15° S
STARLINK-1200 4.1 18:41:12 10° W 18:45:18 59° N 18:48:43 14° ENE
SL-8 R/B 4.4 18:42:25 10° W 18:46:55 42° SSW 18:49:51 20° SE
CZ-2C R/B 3.7 18:42:41 10° NNE 18:47:27 69° ESE 18:52:05 10° S
Meteor 1-11 4.4 18:41:56 10° N 18:47:38 56° ENE 18:52:03 17° SSE
STARLINK-1192 4.1 18:46:12 10° W 18:50:18 58° N 18:53:31 16° ENE
Cosmos 2263 4.4 18:48:52 10° NNW 18:54:28 68° WSW 18:59:32 13° SSE
STARLINK-1244 4.1 18:51:12 10° W 18:55:18 58° N 18:58:16 18° ENE
Cosmos 1908 3.4 18:52:23 15° SSE 18:55:19 48° E 18:59:05 10° NNE
STARLINK-1138 4.1 18:56:12 10° W 19:00:18 57° N 19:03:04 20° ENE
Abrixas rocket 2.0 18:57:53 10° WSW 19:00:48 58° S 19:01:18 49° SE
Cosmos 2074 Rocket 4.2 18:54:32 10° NNW 19:00:49 74° W 19:07:05 10° S
SPOT 5 4.3 19:00:07 17° ENE 19:01:01 18° ENE 19:03:59 10° NNE
STARLINK-67 2.8 18:58:59 10° WNW 19:01:32 54° NNE 19:01:57 46° NE
Cosmos 1726 Rocket 3.5 18:57:46 10° S 19:02:06 61° E 19:06:30 10° NNE
ATLAS 2AS CENTAUR R/B 2.9 18:56:20 10° NW 19:04:06 83° NE 19:08:47 24° SE
USA 234 3.5 18:58:52 10° ENE 19:05:07 46° SE 19:11:21 10° SSW
Cosmos 1943 3.1 18:59:32 10° SSW 19:05:10 76° ESE 19:10:53 10° NNE
STARLINK-1143 4.1 19:01:08 10° W 19:05:15 57° N 19:07:48 22° ENE
Cosmos 1825 Rocket 3.9 19:01:23 10° NNW 19:05:46 64° W 19:10:01 10° S
ISS -1.5 19:03:37 10° W 19:05:55 17° SW 19:07:16 14° S
Aureole 1 Rocket 4.3 19:00:37 10° S 19:08:05 52° ESE 19:14:04 10° NNE
Spot 2 Rocket 3.8 19:06:11 27° SE 19:08:43 51° ENE 19:13:39 10° N
STARLINK-1241 4.1 19:06:12 10° W 19:10:18 57° N 19:12:38 24° ENE
Meteor 2-17 Rocket 4.4 19:06:02 10° N 19:12:14 87° E 19:17:20 16° S
SPOT 3 Rocket 4.2 19:07:38 10° S 19:12:45 56° W 19:17:54 10° NNW
Cosmos 1140 Rocket 4.1 19:11:31 30° SE 19:12:48 34° ESE 19:17:26 10° NE
STARLINK-1239 4.1 19:11:12 10° W 19:15:18 57° N 19:17:26 26° ENE
Cosmos 1610 Rocket 4.5 19:10:04 10° N 19:16:19 84° W 19:21:46 14° S
Iridium 4 Rocket 4.3 19:13:31 10° NNE 19:16:55 24° ENE 19:16:55 24° ENE
MetOp-B 4.1 19:15:54 27° SSE 19:18:49 70° ENE 19:24:11 10° N
STARLINK-1240 4.1 19:16:11 10° WNW 19:20:17 57° N 19:22:12 29° ENE
MOS 1 Rocket 3.6 19:16:41 10° NNE 19:22:00 90° NE 19:27:28 10° SSW
Cosmos 1953 Rocket 4.0 19:20:20 10° NNW 19:24:45 61° W 19:27:52 19° S
STARLINK-1216 4.1 19:21:11 10° WNW 19:25:17 57° N 19:27:00 32° ENE
CZ-4C R/B 4.2 19:20:28 10° NW 19:25:56 28° NNE 19:32:13 10° ENE
SL-16 R/B 4.4 19:22:24 10° W 19:27:08 27° NW 19:31:55 10° NNE
Terra 3.0 19:28:43 25° ENE 19:29:19 26° ENE 19:33:14 10° N
Cosmos 1606 Rocket 4.1 19:25:55 10° SSW 19:30:17 58° WNW 19:34:43 10° N
STARLINK-1237 4.0 19:26:11 10° WNW 19:30:17 58° N 19:31:47 35° ENE
Cosmos 1818 3.4 19:25:08 10° SSW 19:30:34 79° SE 19:36:03 10° NE
Cosmos 921 Rocket 2.8 19:27:54 10° NNW 19:32:06 70° ENE 19:32:50 55° SE
CZ-2C R/B 2.6 19:28:48 10° NNE 19:34:00 78° WNW 19:39:10 10° SSW
Cosmos 614 Rocket 3.8 19:29:06 10° SSW 19:34:19 79° ESE 19:39:33 10° NNE
BREEZE M DEB (TANK) 3.5 19:26:50 10° SW 19:34:22 44° SSE 19:34:31 43° SSE
STARLINK-1233 3.3 19:31:34 10° WNW 19:34:36 59° N 19:34:36 59° N
STARLINK-1212 3.3 19:32:01 10° WNW 19:35:01 59° N 19:35:01 59° N
STARLINK-1202 4.0 19:31:10 10° WNW 19:35:17 58° N 19:36:33 39° ENE
Cosmos 407 Rocket 3.3 19:30:15 10° SSW 19:35:21 68° ESE 19:40:28 10° NNE
STARLINK-1105 3.3 19:32:28 10° WNW 19:35:29 59° N 19:35:29 59° N
STARLINK-1206 3.3 19:32:57 10° WNW 19:35:53 58° N 19:35:53 58° N
Cosmos 2228 3.8 19:32:09 10° SSW 19:36:21 53° WNW 19:40:37 10° N
STARLINK-1247 3.3 19:33:23 10° WNW 19:36:19 58° N 19:36:19 58° N
STARLINK-1203 4.0 19:32:31 10° WNW 19:36:36 59° N 19:37:45 41° ENE
Cosmos 1656 Rocket 4.4 19:31:25 10° NW 19:36:52 50° WSW 19:40:14 22° S
STARLINK-1227 3.3 19:33:48 10° WNW 19:36:45 59° N 19:36:45 59° N
STARLINK-1218 3.3 19:34:19 10° WNW 19:37:11 58° N 19:37:11 58° N
STARLINK-1226 3.3 19:34:44 10° WNW 19:37:37 58° NNW 19:37:37 58° NNW
SPOT 1/Viking Rocket 3.6 19:36:24 42° SE 19:37:55 60° ENE 19:43:04 10° N
STARLINK-1254 3.3 19:35:10 10° WNW 19:38:04 58° NNW 19:38:04 58° NNW
STARLINK-1215 3.4 19:35:40 10° WNW 19:38:30 57° NNW 19:38:30 57° NNW
STARLINK-1231 3.4 19:36:07 10° WNW 19:38:56 57° NNW 19:38:56 57° NNW
STARLINK-1232 3.4 19:37:01 10° WNW 19:39:47 56° NNW 19:39:47 56° NNW
IGS 5A 3.4 19:39:45 59° ESE 19:40:10 64° ENE 19:44:19 10° N
STARLINK-1217 3.4 19:37:28 10° WNW 19:40:14 56° NNW 19:40:14 56° NNW
STARLINK-1208 3.4 19:37:52 10° WNW 19:40:40 57° NNW 19:40:40 57° NNW
STARLINK-1229 3.5 19:38:20 10° WNW 19:41:04 55° NNW 19:41:04 55° NNW
STARLINK-1271 3.5 19:38:48 10° WNW 19:41:32 55° NNW 19:41:32 55° NNW
SAR-Lupe-2 3.4 19:38:21 10° NNE 19:41:58 89° W 19:42:09 80° SSW
STARLINK-1270 3.5 19:39:16 10° WNW 19:41:57 54° NNW 19:41:57 54° NNW
STARLINK-1154 3.5 19:39:42 10° WNW 19:42:23 54° NNW 19:42:23 54° NNW
STARLINK-1197 3.6 19:40:36 10° WNW 19:43:15 53° NNW 19:43:15 53° NNW
STARLINK-1189 3.6 19:41:05 10° WNW 19:43:42 53° NW 19:43:42 53° NW
STARLINK-1198 3.6 19:41:31 10° WNW 19:44:07 52° NW 19:44:07 52° NW
STARLINK-1188 3.6 19:41:57 10° WNW 19:44:33 52° NW 19:44:33 52° NW
STARLINK-1246 4.0 19:41:08 10° WNW 19:45:15 60° N 19:46:06 48° NE
Cosmos 2341 Rocket 4.0 19:38:58 10° N 19:45:22 89° ENE 19:48:37 32° S
STARLINK-1235 3.6 19:42:36 10° WNW 19:45:11 53° NW 19:45:11 53° NW
STARLINK-1187 3.6 19:42:56 10° WNW 19:45:33 53° NW 19:45:33 53° NW
BREEZE-M DEB (TANK) 4.3 19:41:55 10° W 19:45:58 32° SW 19:45:58 32° SW
COSMOS 2455 2.8 19:40:15 10° NW 19:46:20 80° NE 19:48:18 45° SE
SL-4 R/B 4.2 19:43:35 10° SW 19:43:45 11° SW 19:43:45 11° SW
STARLINK-1199 3.7 19:43:54 10° WNW 19:46:28 51° NW 19:46:28 51° NW
STARLINK-1191 3.7 19:44:22 10° WNW 19:46:54 50° NW 19:46:54 50° NW
STARLINK-1201 3.6 19:44:32 10° WNW 19:47:21 56° NNW 19:47:21 56° NNW
STARLINK-1210 3.7 19:44:48 10° WNW 19:47:20 50° NW 19:47:20 50° NW
STARLINK-1221 3.8 19:45:15 10° WNW 19:47:46 49° NW 19:47:46 49° NW
ERS-1 Rocket 3.1 19:47:59 51° ESE 19:48:50 58° ENE 19:53:47 10° N
STARLINK-1219 3.8 19:45:42 10° WNW 19:48:12 49° NW 19:48:12 49° NW
Cosmos 1340 Rocket 2.9 19:47:46 40° SSW 19:49:08 74° WNW 19:53:12 10° N
STARLINK-1222 3.8 19:46:10 10° WNW 19:48:38 48° NW 19:48:38 48° NW
Cosmos 1980 Rocket 4.2 19:46:00 10° N 19:49:36 17° NNE 19:52:06 13° ENE
STARLINK-1211 3.8 19:46:37 10° WNW 19:49:04 48° NW 19:49:04 48° NW
STARLINK-1214 3.8 19:47:04 10° WNW 19:49:31 47° NW 19:49:31 47° NW
STARLINK-1224 3.9 19:46:10 10° WNW 19:50:18 61° N 19:50:56 53° NE
STARLINK-1234 4.0 19:47:30 10° WNW 19:49:39 42° WNW 19:49:39 42° WNW
STARLINK-1228 4.3 19:47:39 10° WNW 19:49:30 35° WNW 19:49:30 35° WNW
STARLINK-1245 3.9 19:47:32 10° WNW 19:49:55 46° NW 19:49:55 46° NW
STARLINK-1238 3.9 19:47:58 10° WNW 19:50:23 47° NW 19:50:23 47° NW
STARLINK-1205 4.0 19:48:54 10° WNW 19:51:14 44° NW 19:51:14 44° NW
STARLINK-1204 4.0 19:49:21 10° WNW 19:51:39 44° NW 19:51:39 44° NW
STARLINK-1225 3.9 19:51:07 10° WNW 19:55:15 62° N 19:55:40 57° NE
Cosmos 1954 Rocket 4.1 19:57:46 53° E 19:57:46 53° E 20:02:33 10° NNE
Cosmos 220 Rocket 4.4 19:53:24 10° NNW 19:57:26 50° NE 19:57:26 50° NE
Cosmos 1892 3.8 19:54:05 10° N 19:56:50 35° NE 19:56:50 35° NE
STARLINK-1230 3.8 19:56:07 10° WNW 20:00:15 63° N 20:00:28 62° NNE
STARLINK-1243 3.8 20:01:05 10° WNW 20:05:14 64° N 20:05:14 64° N
ATLAS CENTAUR R/B 3.5 20:02:45 10° NNW 20:05:23 17° NNE 20:06:08 16° NE
Cosmos 2218 Rocket 3.9 19:59:56 10° N 20:06:10 81° E 20:07:52 51° SSE
Cosmos 1461 3.3 20:03:16 10° NW 20:07:44 59° SW 20:07:55 59° SW
Cosmos 1656 4.3 20:02:39 10° NNW 20:08:06 43° NE 20:08:58 40° ENE
ERBS 3.8 20:06:07 10° NW 20:08:37 34° NNW 20:08:37 34° NNW
STARLINK-1236 3.9 20:06:08 10° WNW 20:10:04 65° N 20:10:04 65° N
Cosmos 1076 Rocket 3.6 20:07:21 10° N 20:11:09 67° NNE 20:11:09 67° NNE
Cosmos 1023 Rocket 4.5 20:11:23 32° SSW 20:13:48 79° WNW 20:18:59 10° NNE
Resurs 01 Rocket 3.7 20:12:29 15° SW 20:14:59 23° W 20:18:30 10° NW
Cosmos 2151 4.3 20:11:54 10° N 20:14:38 30° NE 20:14:38 30° NE
ATLAS 5 CENTAUR R/B 3.7 20:20:51 18° NE 20:20:51 18° NE 20:22:08 10° NE
Cosmos 1825 4.2 20:15:33 10° N 20:17:15 21° NNE 20:17:15 21° NNE
In-Cosmos 22 Rocket 4.2 20:13:14 10° NNW 20:19:06 85° WSW 20:20:12 61° S
STARLINK-1269 4.1 20:16:03 10° WNW 20:19:36 58° NW 20:19:36 58° NW
USA 32 4.2 20:15:11 10° N 20:20:05 55° ENE 20:20:05 55° ENE
Cosmos 2181 Rocket 3.9 20:18:41 42° SSW 20:21:01 85° W 20:27:16 10° N
NOSS 3-4 (A) 4.5 20:15:44 10° NW 20:22:21 46° WSW 20:24:57 34° SSW
NOSS 3-4 (C) 4.5 20:15:50 10° NW 20:22:27 46° WSW 20:25:03 34° SSW
Cosmos 1300 3.6 20:23:46 47° NW 20:23:46 47° NW 20:27:01 10° N
Landsat 7 4.4 20:24:18 45° SW 20:24:59 49° W 20:29:38 10° NNW
STARLINK-1200 4.3 20:21:01 10° WNW 20:24:22 54° NW 20:24:22 54° NW
Meteor 2-1 Rocket 4.2 20:25:44 68° ESE 20:25:55 69° E 20:31:51 10° NNE
Cosmos 1763 Rocket 3.6 20:23:46 10° NNW 20:28:47 64° NE 20:28:47 64° NE
STARLINK-1192 4.5 20:26:01 10° WNW 20:29:09 49° NW 20:29:09 49° NW
SL-8 Rocket 4.4 20:24:38 10° NNW 20:30:50 60° W 20:32:55 41° SSW
CARTOSAT-1 4.1 20:36:52 55° WNW 20:36:52 55° WNW 20:40:35 10° NNW
SPOT 5 3.2 20:39:20 55° WNW 20:39:20 55° WNW 20:43:02 10° NNW
Cosmos 2058 3.8 20:34:43 10° NNW 20:37:54 46° NW 20:37:54 46° NW
SL-24 R/B - RUBIN 2 4.4 20:34:29 10° SW 20:40:13 76° NW 20:46:41 10° NE
Cosmos 2366 rocket 4.2 20:35:08 10° NNW 20:41:12 62° W 20:42:31 50° SW
USA 234 3.3 20:41:53 10° ENE 20:48:26 76° NNW 20:54:57 10° WSW
Cosmos 2369 4.2 20:44:08 10° NNW 20:49:33 49° NE 20:49:33 49° NE
Cosmos 540 Rocket 4.1 20:45:11 10° NNW 20:49:35 47° NE 20:49:35 47° NE
Nadezhda 3 Rocket 4.1 20:52:27 59° ENE 20:52:27 59° ENE 20:58:11 10° NNE
ATLAS 2AS CENTAUR R/B 4.1 20:48:10 10° NW 20:54:17 28° WSW 20:56:14 25° SW
Iridium 4 Rocket 4.4 20:53:13 10° NNW 20:56:43 34° WNW 20:56:43 34° WNW
Cosmos 1570 Rocket 4.3 20:52:44 10° NNW 20:57:27 66° N 20:57:27 66° N
Meteor 2-3 Rocket 4.3 20:55:13 10° N 21:00:13 49° NE 21:00:13 49° NE
RESURS DK-1 4.0 20:57:15 10° NNW 20:59:42 32° N 20:59:42 32° N
Cosmos 841 Rocket 3.9 20:57:12 10° NNW 21:01:39 58° NNE 21:01:39 58° NNE
BREEZE M DEB (TANK) 3.8 21:02:08 61° SSW 21:03:11 73° SSE 21:20:05 10° ENE
Terra 2.7 21:07:36 44° WNW 21:07:36 44° WNW 21:11:27 10° NNW
Cosmos 1697 Rocket 3.0 21:01:50 10° NNW 21:06:58 61° NNE 21:06:58 61° NNE
Mayak 0.7 21:11:38 10° NNE 21:13:23 24° NNE 21:13:23 24° NNE
CZ-4C R/B 3.3 21:09:11 10° NW 21:15:54 55° NE 21:17:32 47° ENE
SL-16 R/B 4.0 21:13:11 10° NNW 21:17:31 22° NE 21:18:41 20° NE
Meteor 2-10 Rocket 4.1 21:20:36 54° N 21:20:36 54° N 21:24:46 10° N
Cosmos 2239 Rocket 4.5 21:16:03 10° NNW 21:21:59 78° NW 21:21:59 78° NW
Cosmos 1821 Rocket 4.1 21:17:39 10° NNW 21:23:55 71° W 21:23:55 71° W
Cosmos 2344 4.4 21:15:10 10° NW 21:24:12 69° NE 21:28:52 41° ESE
Cosmos 2322 Rocket 4.0 21:24:35 10° NNW 21:28:55 22° NE 21:30:00 21° NE
COSMOS 2455 4.5 21:27:05 10° WNW 21:31:27 23° WSW 21:31:27 23° WSW
ASTEX 1 4.4 21:33:47 45° NW 21:33:47 45° NW 21:37:23 10° NNW
Cosmos 1980 Rocket 2.8 21:29:16 10° NNW 21:33:52 51° NNE 21:33:52 51° NNE
Cosmos 1934 Rocket 4.1 21:29:57 10° N 21:35:38 73° NNW 21:35:38 73° NNW
Cosmos 1605 Rocket 4.2 21:36:43 10° N 21:41:55 61° NNE 21:41:55 61° NNE
ATLAS CENTAUR R/B 3.9 21:41:10 10° NW 21:42:19 18° NNW 21:42:19 18° NNW
Cosmos 2278 4.4 21:48:01 10° NNW 21:52:13 52° NNW 21:52:13 52° NNW
Cosmos 2082 Rocket 3.6 22:02:46 29° NE 22:02:46 29° NE 22:05:36 10° NE
ATLAS 5 CENTAUR R/B 3.5 22:02:16 29° NNW 22:02:29 29° NNW 22:06:55 10° NE
COSMOS 2406 4.0 22:09:22 50° NNW 22:09:22 50° NNW 22:13:59 10° NNE
Cosmos 1833 Rocket 3.6 22:21:36 44° NNE 22:21:36 44° NNE 22:25:29 10° NNE
SL-16 R/B 4.5 22:27:03 17° ENE 22:29:11 20° NE 22:33:31 10° N
USA 234 4.0 22:24:49 10° ENE 22:31:05 50° N 22:37:20 10° WNW
Mayak 1.6 22:48:53 10° NNW 22:49:57 12° NW 22:49:57 12° NW
Cosmos 1727 Rocket 4.5 22:59:22 57° NNW 22:59:22 57° NNW 23:04:36 10° N
SL-16 R/B 3.2 22:56:47 10° NNW 23:00:33 43° NNW 23:00:33 43° NNW
Cosmos 1459 Rocket 4.4 22:56:11 10° NNW 23:01:18 59° NNW 23:01:18 59° NNW
Cosmos 1802 Rocket 4.4 22:57:47 10° N 23:02:46 59° N 23:02:46 59° N
CZ-4C R/B 3.5 22:57:45 10° NW 23:02:43 43° WNW 23:02:43 43° WNW
Cosmos 1725 Rocket 4.4 23:03:56 10° N 23:09:17 60° NNE 23:09:17 60° NNE
Cosmos 2360 Rocket 3.1 23:06:11 10° NNW 23:10:44 45° NNE 23:10:44 45° NNE
Cosmos 1607 4.5 23:13:57 54° NE 23:13:57 54° NE 23:18:40 10° NE
Cosmos 2333 Rocket 4.0 23:08:15 10° NNW 23:12:58 26° NE 23:15:07 21° ENE
Cosmos 2016 Rocket 4.3 23:07:10 10° N 23:12:25 62° N 23:12:25 62° N
Cosmos 2322 Rocket 3.2 23:08:08 10° NNW 23:11:48 42° NNW 23:11:48 42° NNW
Cosmos 1980 Rocket 4.2 23:13:49 10° NW 23:15:38 18° WNW 23:15:38 18° WNW
Cosmos 2123 Rocket 4.4 23:22:26 57° NE 23:22:26 57° NE 23:27:28 10° NNE
Resurs 1-4 Rocket 3.8 23:32:28 10° NE 23:36:00 25° ENE 23:36:00 25° ENE
Cosmos 2082 Rocket 3.5 23:44:34 32° NW 23:44:34 32° NW 23:49:33 10° NNE
ATLAS 5 CENTAUR R/B 4.4 23:45:14 10° NW 23:48:43 19° N 23:52:35 10° NE
CZ-2D R/B 3.5 23:44:24 10° NNE 23:48:41 33° E 23:48:41 33° E
